Showing default

LOPEN, 60473

Orbit data source: Space-Track

LOPEN, 60473 is an American payload satellite in SSO that was launched on Fri, 16 Aug 2024 UTC via an FALCON 9 launch vehicle from the Air Force Western Test Range (AFWTR). Payload-class satellites include a variety of spacecraft equipped with specific instruments for various scientific and technological missions. These include communications satellites like Starlink; space stations such as the ISS; scientific satellites like the Hubble; Earth observation satellites from companies like Planet Labs, Umbra, and HawkEye 360; GPS; miniature CubeSats for education and research; and military/defense satellites.

Loading next visibility...
Identifier
60473, 2024-149F
Orbit
SSO
Country
Flag of USUS
Related business
Manufacturer
ARRAY
Mission
Operational Commercial Technology
Bus & Motor
CUBESAT 1.5U, Unknown motor
Mass
1.83 kg wet, 1.83 kg dry
Launch date (UTC)
2024-08-16 (2 years ago)
Launch vehicle
FALCON 9
Launch site
Air Force Western Test Range (AFWTR)
Object type
Payload
Rocket body
Debris
Shape & HBR
Box, 0.1 m
Radar Cross Section
0.015 m², Medium (>0.1 m² and < 1m²)

Expand to show TLE details & history
Last TLE update: 16 hours ago

TLE from 16 hours ago
0 LOPEN
1 60473U 24149F   26171.18484805  .00013008  00000-0  33057-3 0  9998
2 60473  97.3773 254.5764 0001100 176.9324 183.1929 15.39759663102724
Epoch: 2026-06-20T04:26Z
TLE epoch observation values (Epoch: 2026-06-20T04:26:10.871Z)
Latitude
-0.00001°
Longitude
-80.372°
Altitude
450.687 km
Speed
7.641 km/s
True Right ascension
16h 58m 18s
True Declination
0° 00' 00"
Sunlit
Object was in full shadow at epoch
Visualization orbit readout
Latitude
Unknown
Longitude
Unknown
Altitude
Unknown
Speed
Unknown
Apparent Right ascension
Unknown
Apparent Declination
Unknown
Sunlit
N/A
Visualization observer readout
Local Sidereal Time
07:24:02
Azimuth
Unknown
Elevation
Unknown
Doppler factor
Unknown
Orbital elements
Apogee altitude
444.508 km
Perigee altitude
443.007 km
Semi-major axis
6,821.895 km
Eccentricity
0.00011
Inclination
97.3773°
RAAN
254.5764°
Arg. of periapsis
176.9324°
True anomaly
183.1922°
Mean anomaly
183.1929°
Eccentric anomaly
183.19255°
Mean motion
3.85199 °/min
Orbital period
93.46 mins
BSTAR
0.00033057
Loading maneuver chart data...
Computing Atmospheric mass density...
Loading historical data...
Loading historical data...
Loading historical data...
Loading historical data...
Loading historical data...
Loading historical data...
Loading historical data...

Documentation

Showing up to 5 results
|